Flag for Canada Weather past 2 weeks in Rainy River, Ontario, Canada

Now
30 °F

Low clouds.


Feels Like: 23 °F
Forecast: 25 / 31 °F
Wind: 7 mph from South

Location: Baudette International Airport

Current Time: Dec 20, 2014 at 4:32:33 PM

Latest Report: Dec 20, 2014 at 3:53 PM


Visibility: 10 mi

Pressure: 30.03 "Hg

Humidity: 89%

Dew point: 27 °F

Location of Rainy RiverLocation

Historic Weather in Rainy River — Graph

°F

Rainy River temperature yesterday

Maximum temperature yesterday: 25 °F (at 7:53 PM)
Minimum temperature yesterday: 19 °F (at 12:53 AM)
Average temperature yesterday: 22 °F

Past Weeks' High & Low Weather Summary

 TemperatureHumidityPressure
High37 °F (Dec 12, 1:53 PM)100% (Dec 13, 4:53 AM)30.68 "Hg (Dec 13, 4:53 AM)
Low0 °F (Dec 6, 5:53 AM)55% (Dec 6, 11:53 PM)29.78 "Hg (Dec 15, 3:03 AM)
Average22 °F86%30.18 "Hg
* Reported Dec 5 3:53 PM — Dec 20 3:03 PM, Rainy River, Weather by CustomWeather, © 2014

Note: Actual official high and low records may vary slightly from our data, if they occured in-between our weather recording intervals... More about our weather records

Advertising

Rainy River weather history for previous 24 hours

 ConditionsComfort  
Time TempWeatherWind HumidityBarometerVisibility
3:03 PM
Dec 20
30 °FLow clouds.8 mph89%29.97 "Hg10 mi
2:53 PM30 °FOvercast.7 mph89%30.02 "Hg10 mi
1:53 PM31 °FOvercast.9 mph85%30.02 "Hg10 mi
12:53 PM31 °FIce fog.9 mph89%30.03 "Hg6 mi
11:53 AM30 °FIce fog.6 mph92%30.05 "Hg2 mi
11:03 AM30 °FIce fog.7 mph92%30.01 "Hg3 mi
9:53 AM29 °FIce fog.5 mph93%30.07 "Hg2 mi
8:53 AM28 °FIce fog.6 mph93%30.06 "Hg2 mi
8:01 AM28 °FIce fog.5 mph93%30.02 "Hg2 mi
6:53 AM27 °FIce fog.3 mph96%30.08 "Hg2 mi
5:53 AM27 °FIce fog.3 mph92%30.07 "Hg4 mi
4:53 AM26 °FIce fog.5 mph92%30.07 "Hg5 mi
3:53 AM26 °FIce fog.3 mph88%30.08 "Hg6 mi
2:53 AM25 °FLight snow. Ice fog.No wind92%30.09 "Hg2 mi
2:03 AM25 °FIce fog.6 mph88%30.03 "Hg5 mi
1:53 AM25 °FLight snow. Ice fog.7 mph88%30.09 "Hg2 mi
12:53 AM25 °FOvercast.5 mph88%30.09 "Hg7 mi
11:53 PM
Dec 19
25 °FLight snow. Ice fog.6 mph88%30.10 "Hg5 mi
10:53 PM25 °FLight snow. Ice fog.6 mph88%30.10 "Hg2 mi
10:01 PM25 °FIce fog.6 mph88%30.05 "Hg6 mi
8:53 PM25 °FIce fog.6 mph88%30.11 "Hg6 mi
7:53 PM25 °FIce fog.6 mph88%30.12 "Hg5 mi
6:53 PM24 °FIce fog.8 mph91%30.13 "Hg6 mi
5:53 PM24 °FIce fog.7 mph91%30.14 "Hg6 mi
4:53 PM24 °FIce fog.7 mph88%30.14 "Hg6 mi
Weather by CustomWeather, © 2014

See weather overviewHow to use our weather pages